Time,TemperatureF,DewpointF,PressureIn,WindDirection,WindDirectionDegrees,WindSpeedMPH,WindSpeedGustMPH,Humidity,HourlyPrecipIn,Conditions,Clouds,dailyrainin,SoftwareType,DateUTC
2013-04-23 00:03:00,51.0,41.0,30.09,South,174,0.0,0.0,69,0.00,,,0.00,,2013-04-23 04:03:00,
2013-04-23 00:12:00,51.0,41.0,30.09,South,174,0.0,0.0,69,0.00,,,0.00,,2013-04-23 04:12:00,
2013-04-23 00:23:00,51.0,42.0,30.09,South,174,0.0,0.0,70,0.00,,,0.00,,2013-04-23 04:23:00,
2013-04-23 00:33:00,50.0,42.0,30.09,South,174,0.0,1.0,73,0.00,,,0.00,,2013-04-23 04:33:00,
2013-04-23 00:43:00,50.0,42.0,30.09,South,174,0.0,1.0,73,0.00,,,0.00,,2013-04-23 04:43:00,
2013-04-23 00:53:00,50.0,41.0,30.08,South,174,0.0,0.0,72,0.00,,,0.00,,2013-04-23 04:53:00,
2013-04-23 01:02:00,50.0,42.0,30.09,South,174,0.0,0.0,73,0.00,,,0.00,,2013-04-23 05:02:00,
2013-04-23 01:12:00,50.0,42.0,30.09,South,174,0.0,0.0,73,0.00,,,0.00,,2013-04-23 05:12:00,
2013-04-23 01:22:00,50.0,42.0,30.08,South,174,0.0,1.0,74,0.00,,,0.00,,2013-04-23 05:22:00,
2013-04-23 01:32:00,50.0,42.0,30.08,South,173,0.0,0.0,73,0.00,,,0.00,,2013-04-23 05:32:00,
2013-04-23 01:42:00,50.0,42.0,30.08,South,173,0.0,0.0,73,0.00,,,0.00,,2013-04-23 05:42:00,
2013-04-23 01:52:00,50.0,42.0,30.08,SW,232,0.0,1.0,73,0.00,,,0.00,,2013-04-23 05:52:00,
2013-04-23 02:01:00,50.0,41.0,30.08,SW,232,0.0,3.0,72,0.00,,,0.00,,2013-04-23 06:01:00,
2013-04-23 02:12:00,50.0,41.0,30.08,SW,232,0.0,3.0,72,0.00,,,0.00,,2013-04-23 06:12:00,
2013-04-23 02:21:00,51.0,42.0,30.07,SW,227,0.0,2.0,71,0.00,,,0.00,,2013-04-23 06:21:00,
2013-04-23 02:33:00,51.0,42.0,30.07,SW,227,0.0,1.0,71,0.00,,,0.00,,2013-04-23 06:33:00,
2013-04-23 02:42:00,51.0,42.0,30.07,SW,227,0.0,1.0,71,0.00,,,0.00,,2013-04-23 06:42:00,
2013-04-23 02:52:00,51.0,42.0,30.06,SW,227,0.0,0.0,72,0.00,,,0.00,,2013-04-23 06:52:00,
2013-04-23 03:02:00,51.0,43.0,30.06,SW,227,0.0,1.0,74,0.00,,,0.00,,2013-04-23 07:02:00,
2013-04-23 03:11:00,51.0,43.0,30.06,SW,227,0.0,1.0,74,0.00,,,0.00,,2013-04-23 07:11:00,
2013-04-23 03:21:00,51.0,43.0,30.06,SW,226,0.0,2.0,74,0.00,,,0.00,,2013-04-23 07:21:00,
2013-04-23 03:32:00,51.0,42.0,30.05,SW,226,0.0,1.0,72,0.00,,,0.00,,2013-04-23 07:32:00,
2013-04-23 03:42:00,51.0,42.0,30.05,SW,226,0.0,1.0,72,0.00,,,0.00,,2013-04-23 07:42:00,
2013-04-23 03:52:00,52.0,43.0,30.04,SW,226,0.0,1.0,72,0.00,,,0.00,,2013-04-23 07:52:00,
2013-04-23 04:02:00,52.0,44.0,30.03,SW,226,0.0,1.0,73,0.00,,,0.00,,2013-04-23 08:02:00,
2013-04-23 04:11:00,52.0,44.0,30.03,SW,226,0.0,1.0,73,0.00,,,0.00,,2013-04-23 08:11:00,
2013-04-23 04:21:00,52.0,44.0,30.02,ESE,121,0.0,1.0,73,0.00,,,0.00,,2013-04-23 08:21:00,
2013-04-23 04:31:00,51.0,43.0,30.02,SE,136,0.0,0.0,74,0.00,,,0.00,,2013-04-23 08:31:00,
2013-04-23 04:42:00,51.0,43.0,30.02,SE,136,0.0,0.0,74,0.00,,,0.00,,2013-04-23 08:42:00,
2013-04-23 04:52:00,51.0,43.0,30.01,SE,136,0.0,2.0,75,0.00,,,0.00,,2013-04-23 08:52:00,
2013-04-23 05:01:00,51.0,44.0,30.01,SSE,154,0.0,1.0,76,0.00,,,0.00,,2013-04-23 09:01:00,
2013-04-23 05:11:00,51.0,44.0,30.01,SSE,154,0.0,1.0,76,0.00,,,0.00,,2013-04-23 09:11:00,
2013-04-23 05:21:00,51.0,44.0,30.03,South,171,0.0,2.0,77,0.00,,,0.00,,2013-04-23 09:21:00,
2013-04-23 05:32:00,52.0,45.0,30.03,South,171,0.0,1.0,76,0.00,,,0.00,,2013-04-23 09:32:00,
2013-04-23 05:42:00,52.0,45.0,30.03,South,171,0.0,1.0,76,0.00,,,0.00,,2013-04-23 09:42:00,
2013-04-23 05:53:00,52.0,45.0,30.03,SW,218,0.0,1.0,76,0.00,,,0.00,,2013-04-23 09:53:00,
2013-04-23 06:02:00,52.0,45.0,30.02,South,186,0.0,3.0,76,0.00,,,0.00,,2013-04-23 10:02:00,
2013-04-23 06:13:00,52.0,45.0,30.02,South,186,0.0,3.0,76,0.00,,,0.00,,2013-04-23 10:13:00,
2013-04-23 06:22:00,52.0,45.0,30.01,West,264,0.0,3.0,77,0.00,,,0.00,,2013-04-23 10:22:00,
2013-04-23 06:32:00,52.0,45.0,30.00,SW,227,0.0,1.0,78,0.00,,,0.00,,2013-04-23 10:32:00,
2013-04-23 06:42:00,52.0,45.0,30.00,SW,227,0.0,1.0,78,0.00,,,0.00,,2013-04-23 10:42:00,
2013-04-23 06:52:00,52.0,45.0,30.00,WSW,237,0.0,2.0,78,0.00,,,0.00,,2013-04-23 10:52:00,
2013-04-23 07:02:00,52.0,45.0,30.00,SW,226,0.0,1.0,77,0.00,,,0.00,,2013-04-23 11:02:00,
2013-04-23 07:12:00,52.0,45.0,29.99,SW,227,0.0,1.0,78,0.00,,,0.00,,2013-04-23 11:12:00,
2013-04-23 07:21:00,52.0,45.0,29.99,SW,227,0.0,1.0,78,0.00,,,0.00,,2013-04-23 11:21:00,
2013-04-23 07:32:00,52.0,45.0,29.99,West,260,0.0,4.0,78,0.00,,,0.00,,2013-04-23 11:32:00,
2013-04-23 07:42:00,52.0,46.0,30.01,SW,233,1.0,4.0,79,0.00,,,0.00,,2013-04-23 11:42:00,
2013-04-23 07:53:00,52.0,46.0,30.01,SW,233,1.0,4.0,79,0.00,,,0.00,,2013-04-23 11:53:00,
2013-04-23 08:02:00,53.0,46.0,30.01,WSW,250,1.0,3.0,77,0.00,,,0.00,,2013-04-23 12:02:00,
2013-04-23 08:12:00,53.0,46.0,30.01,WSW,250,1.0,3.0,77,0.00,,,0.00,,2013-04-23 12:12:00,
2013-04-23 08:22:00,54.0,47.0,30.01,WSW,247,0.0,4.0,76,0.00,,,0.00,,2013-04-23 12:22:00,
2013-04-23 08:32:00,54.0,46.0,30.01,SSW,196,0.0,3.0,75,0.00,,,0.00,,2013-04-23 12:32:00,
2013-04-23 08:41:00,54.0,46.0,30.01,SSW,196,0.0,3.0,75,0.00,,,0.00,,2013-04-23 12:41:00,
2013-04-23 08:52:00,55.0,48.0,30.00,SW,233,0.0,6.0,77,0.00,,,0.00,,2013-04-23 12:52:00,
2013-04-23 09:01:00,55.0,48.0,29.99,WSW,238,2.0,5.0,77,0.00,,,0.00,,2013-04-23 13:01:00,
2013-04-23 09:11:00,55.0,48.0,29.99,WSW,238,2.0,5.0,77,0.00,,,0.00,,2013-04-23 13:11:00,
2013-04-23 09:21:00,56.0,48.0,29.99,WSW,241,2.0,5.0,74,0.00,,,0.00,,2013-04-23 13:21:00,
2013-04-23 09:32:00,57.0,48.0,29.99,West,262,2.0,6.0,72,0.00,,,0.00,,2013-04-23 13:32:00,
2013-04-23 09:41:00,57.0,48.0,29.99,West,262,2.0,6.0,72,0.00,,,0.00,,2013-04-23 13:41:00,
2013-04-23 09:52:00,58.0,49.0,29.99,WSW,245,1.0,5.0,71,0.00,,,0.00,,2013-04-23 13:52:00,
2013-04-23 10:01:00,58.0,49.0,29.99,SW,215,3.0,8.0,71,0.00,,,0.00,,2013-04-23 14:01:00,
2013-04-23 10:11:00,58.0,49.0,29.99,SW,215,3.0,8.0,71,0.00,,,0.00,,2013-04-23 14:11:00,
2013-04-23 10:22:00,59.0,49.0,29.99,SW,215,2.0,5.0,70,0.00,,,0.00,,2013-04-23 14:22:00,
2013-04-23 10:32:00,60.0,50.0,29.99,SW,225,1.0,5.0,69,0.00,,,0.00,,2013-04-23 14:32:00,
2013-04-23 10:42:00,60.0,50.0,29.99,SW,225,1.0,5.0,69,0.00,,,0.00,,2013-04-23 14:42:00,
2013-04-23 10:52:00,61.0,50.0,29.98,WSW,256,3.0,6.0,67,0.00,,,0.00,,2013-04-23 14:52:00,
2013-04-23 11:01:00,61.0,50.0,29.98,WSW,256,3.0,6.0,67,0.00,,,0.00,,2013-04-23 15:01:00,
2013-04-23 11:12:00,62.0,50.0,29.98,WSW,239,5.0,7.0,65,0.00,,,0.00,,2013-04-23 15:12:00,
2013-04-23 11:21:00,63.0,51.0,29.98,WSW,243,3.0,8.0,64,0.00,,,0.00,,2013-04-23 15:21:00,
2013-04-23 11:32:00,63.0,51.0,29.99,West,259,3.0,6.0,65,0.00,,,0.00,,2013-04-23 15:32:00,
2013-04-23 11:42:00,63.0,51.0,29.99,West,259,3.0,6.0,65,0.00,,,0.00,,2013-04-23 15:42:00,
2013-04-23 11:53:00,64.0,52.0,29.98,WSW,249,4.0,8.0,64,0.00,,,0.00,,2013-04-23 15:53:00,
2013-04-23 12:02:00,64.0,51.0,29.98,West,272,2.0,8.0,63,0.00,,,0.00,,2013-04-23 16:02:00,
2013-04-23 12:12:00,64.0,51.0,29.98,West,272,2.0,8.0,63,0.00,,,0.00,,2013-04-23 16:12:00,
2013-04-23 12:23:00,64.0,52.0,29.98,WSW,253,1.0,4.0,64,0.00,,,0.00,,2013-04-23 16:23:00,
2013-04-23 12:34:00,64.0,52.0,29.97,West,273,3.0,7.0,65,0.00,,,0.00,,2013-04-23 16:34:00,
2013-04-23 12:42:00,64.0,52.0,29.97,West,273,3.0,7.0,65,0.00,,,0.00,,2013-04-23 16:42:00,
2013-04-23 12:53:00,64.0,52.0,29.97,WSW,257,4.0,9.0,64,0.00,,,0.00,,2013-04-23 16:53:00,
2013-04-23 13:02:00,65.0,52.0,29.96,West,270,3.0,9.0,62,0.00,,,0.00,,2013-04-23 17:02:00,
2013-04-23 13:11:00,65.0,52.0,29.96,West,270,3.0,9.0,62,0.00,,,0.00,,2013-04-23 17:11:00,
2013-04-23 13:22:00,65.0,53.0,29.96,West,265,3.0,8.0,66,0.00,,,0.00,,2013-04-23 17:22:00,
2013-04-23 13:32:00,66.0,53.0,29.95,WNW,290,4.0,8.0,64,0.00,,,0.00,,2013-04-23 17:32:00,
2013-04-23 13:42:00,66.0,53.0,29.95,WNW,290,4.0,8.0,64,0.00,,,0.00,,2013-04-23 17:42:00,
2013-04-23 13:53:00,64.0,54.0,29.95,NW,321,6.0,11.0,71,0.00,,,0.00,,2013-04-23 17:53:00,
2013-04-23 14:02:00,61.0,55.0,29.95,WNW,303,4.0,10.0,80,0.00,,,0.00,,2013-04-23 18:02:00,
2013-04-23 14:12:00,61.0,55.0,29.95,WNW,303,4.0,10.0,80,0.00,,,0.00,,2013-04-23 18:12:00,
2013-04-23 14:22:00,60.0,55.0,29.95,NW,307,2.0,8.0,83,0.00,,,0.00,,2013-04-23 18:22:00,
2013-04-23 14:32:00,60.0,56.0,29.96,West,271,2.0,6.0,86,0.01,,,0.01,,2013-04-23 18:32:00,
2013-04-23 14:42:00,60.0,56.0,29.96,West,271,2.0,6.0,86,0.01,,,0.01,,2013-04-23 18:42:00,
2013-04-23 14:52:00,59.0,56.0,29.95,West,271,3.0,7.0,89,0.03,,,0.03,,2013-04-23 18:52:00,
2013-04-23 15:02:00,58.0,55.0,29.95,West,272,2.0,5.0,91,0.03,,,0.03,,2013-04-23 19:02:00,
2013-04-23 15:11:00,58.0,55.0,29.95,West,272,2.0,5.0,91,0.03,,,0.03,,2013-04-23 19:11:00,
2013-04-23 15:21:00,58.0,56.0,29.95,WSW,258,3.0,8.0,92,0.04,,,0.04,,2013-04-23 19:21:00,
2013-04-23 15:32:00,58.0,56.0,29.94,West,261,1.0,6.0,93,0.03,,,0.04,,2013-04-23 19:32:00,
2013-04-23 15:42:00,58.0,56.0,29.94,West,261,1.0,6.0,93,0.03,,,0.04,,2013-04-23 19:42:00,
2013-04-23 15:52:00,57.0,55.0,29.94,West,272,1.0,6.0,94,0.01,,,0.04,,2013-04-23 19:52:00,
2013-04-23 16:01:00,57.0,55.0,29.93,West,259,3.0,5.0,94,0.01,,,0.04,,2013-04-23 20:01:00,
2013-04-23 16:11:00,57.0,55.0,29.93,West,259,3.0,5.0,94,0.01,,,0.04,,2013-04-23 20:11:00,
2013-04-23 16:22:00,57.0,55.0,29.93,WSW,258,1.0,5.0,94,0.00,,,0.04,,2013-04-23 20:22:00,
2013-04-23 16:31:00,57.0,55.0,29.91,WSW,252,1.0,4.0,94,0.02,,,0.06,,2013-04-23 20:31:00,
2013-04-23 16:42:00,57.0,55.0,29.91,WSW,252,1.0,4.0,94,0.02,,,0.06,,2013-04-23 20:42:00,
2013-04-23 16:52:00,58.0,57.0,29.92,WSW,250,1.0,3.0,95,0.02,,,0.06,,2013-04-23 20:52:00,
2013-04-23 17:01:00,58.0,57.0,29.90,WSW,250,1.0,3.0,95,0.04,,,0.08,,2013-04-23 21:01:00,
2013-04-23 17:12:00,58.0,57.0,29.90,WSW,250,1.0,3.0,95,0.04,,,0.08,,2013-04-23 21:12:00,
2013-04-23 17:21:00,58.0,57.0,29.89,WSW,247,0.0,4.0,95,0.05,,,0.09,,2013-04-23 21:21:00,
2013-04-23 17:33:00,58.0,57.0,29.88,SSW,213,0.0,3.0,95,0.03,,,0.09,,2013-04-23 21:33:00,
2013-04-23 17:43:00,58.0,57.0,29.88,SSW,213,0.0,3.0,95,0.03,,,0.09,,2013-04-23 21:43:00,
2013-04-23 17:52:00,57.0,56.0,29.88,SW,217,1.0,3.0,96,0.03,,,0.09,,2013-04-23 21:52:00,
2013-04-23 18:03:00,57.0,56.0,29.87,WSW,242,1.0,4.0,96,0.02,,,0.10,,2013-04-23 22:03:00,
2013-04-23 18:12:00,57.0,56.0,29.87,WSW,242,1.0,4.0,96,0.02,,,0.10,,2013-04-23 22:12:00,
2013-04-23 18:22:00,57.0,56.0,29.86,SSW,202,0.0,3.0,96,0.02,,,0.11,,2013-04-23 22:22:00,
2013-04-23 18:33:00,57.0,56.0,29.86,SSW,202,0.0,1.0,96,0.05,,,0.14,,2013-04-23 22:33:00,
2013-04-23 18:42:00,57.0,56.0,29.86,SSW,202,0.0,1.0,96,0.05,,,0.14,,2013-04-23 22:42:00,
2013-04-23 18:52:00,57.0,56.0,29.85,WSW,254,0.0,2.0,96,0.05,,,0.14,,2013-04-23 22:52:00,
2013-04-23 19:02:00,57.0,56.0,29.84,SW,215,0.0,2.0,97,0.05,,,0.15,,2013-04-23 23:02:00,
2013-04-23 19:12:00,57.0,56.0,29.84,SW,215,0.0,2.0,97,0.05,,,0.15,,2013-04-23 23:12:00,
2013-04-23 19:22:00,57.0,56.0,29.83,SW,215,0.0,2.0,97,0.05,,,0.16,,2013-04-23 23:22:00,
2013-04-23 19:32:00,57.0,56.0,29.82,SW,215,0.0,2.0,97,0.03,,,0.17,,2013-04-23 23:32:00,
2013-04-23 19:42:00,57.0,56.0,29.82,SW,215,0.0,2.0,97,0.07,,,0.21,,2013-04-23 23:42:00,
2013-04-23 19:52:00,57.0,56.0,29.82,SW,215,0.0,2.0,97,0.07,,,0.21,,2013-04-23 23:52:00,
2013-04-23 20:01:00,57.0,56.0,29.80,SW,215,0.0,2.0,97,0.17,,,0.32,,2013-04-24 00:01:00,
2013-04-23 20:11:00,57.0,56.0,29.80,SW,215,0.0,2.0,97,0.17,,,0.32,,2013-04-24 00:11:00,
2013-04-23 20:21:00,57.0,56.0,29.80,South,184,1.0,3.0,97,0.19,,,0.35,,2013-04-24 00:21:00,
2013-04-23 20:32:00,57.0,56.0,29.80,SSW,196,0.0,3.0,97,0.25,,,0.42,,2013-04-24 00:32:00,
2013-04-23 20:41:00,57.0,56.0,29.80,SSW,196,0.0,3.0,97,0.25,,,0.42,,2013-04-24 00:41:00,
2013-04-23 20:52:00,57.0,56.0,29.80,WNW,282,0.0,4.0,97,0.28,,,0.49,,2013-04-24 00:52:00,
2013-04-23 21:01:00,57.0,56.0,29.81,NW,315,1.0,4.0,97,0.20,,,0.50,,2013-04-24 01:01:00,
2013-04-23 21:11:00,57.0,56.0,29.81,NW,315,1.0,4.0,97,0.20,,,0.50,,2013-04-24 01:11:00,
2013-04-23 21:21:00,57.0,56.0,29.81,NW,322,0.0,5.0,97,0.30,,,0.65,,2013-04-24 01:21:00,
2013-04-23 21:32:00,57.0,56.0,29.81,NW,322,4.0,7.0,97,0.25,,,0.67,,2013-04-24 01:32:00,
2013-04-23 21:42:00,57.0,56.0,29.81,NW,322,4.0,7.0,97,0.25,,,0.67,,2013-04-24 01:42:00,
2013-04-23 21:52:00,54.0,53.0,29.83,NNE,19,7.0,17.0,95,0.19,,,0.68,,2013-04-24 01:52:00,
2013-04-23 22:02:00,47.0,45.0,29.87,ENE,74,6.0,15.0,92,0.21,,,0.73,,2013-04-24 02:02:00,
2013-04-23 22:16:00,47.0,45.0,29.87,ENE,74,6.0,15.0,92,0.21,,,0.73,,2013-04-24 02:16:00,
2013-04-23 22:46:00,43.0,42.0,29.86,NNE,21,5.0,10.0,95,0.13,,,0.80,,2013-04-24 02:46:00,
2013-04-23 23:07:00,42.0,41.0,29.87,North,360,6.0,18.0,95,0.14,,,0.86,,2013-04-24 03:07:00,
2013-04-23 23:38:00,42.0,41.0,29.88,NE,36,3.0,11.0,96,0.13,,,0.92,,2013-04-24 03:38:00,
2013-04-23 23:48:00,42.0,41.0,29.88,NE,36,3.0,11.0,96,0.13,,,0.92,,2013-04-24 03:48:00,